Location: Trebic
(49.2170°N, 15.8830°E)
Time: 06:02:16
(UTC+02:00)

Courier 1B Rocket - Pass Details

Date: 24 August 2019
Orbit: 920 x 1202 km, 28.2° (Epoch: 17 September)

Event Time Altitude Azimuth Distance (km) Brightness Sun altitude
Rises 04:20:23 0° 221° (SW) 3,921 - -15.2°
Reaches altitude 10° 04:24:59 10° 195° (SSW) 3,024 - -14.6°
Exits shadow 04:25:09 10° 194° (SSW) 3,004 7.1 -14.5°
Maximum altitude 04:28:04 13° 170° (S) 2,838 7.2 -14.2°
Drops below altitude 10° 04:31:13 10° 146° (SE) 3,088 7.6 -13.7°
Sets 04:36:01 0° 121° (ESE) 4,083 8.6 -13.1°
